Willimantic, CT

4:03 AM EDT on October 21, 2019 (GMT -0400)
Windham

Weather History for KIJD - August, 2019

Change the Weather History Date:

Monday, August 26, 2019

  Actual Average Record
Temperature  
Mean Temperature 62 °F -  
Max Temperature 75 °F 78 °F 92 °F (1968)
Min Temperature 50 °F 53 °F 38 °F (1963)
Degree Days  
Heating Degree Days 2    
Growing Degree Days 12 (Base 50)    
Moisture  
Dew Point 51 °F    
Average Humidity 74    
Maximum Humidity 96    
Minimum Humidity 43    
Precipitation  
Precipitation 0.00 in - - ()
Sea Level Pressure  
Sea Level Pressure 30.24 in    
Wind  
Wind Speed 5 mph ()    
Max Wind Speed 13 mph    
Max Gust Speed 20 mph    
Visibility 10.0 miles    
Events      
Averages and records for this station are not official NWS values.
T = Trace of Precipitation, MM = Missing Value Source: Averaged Metar Reports

Daily Weather History Graph

Daily Weather History Graph

Search for Another Location

Airport or City:

Astronomy

Aug. 26, 2019 Rise Set
Actual Time 6:08 AM EDT 7:32 PM EDT
Civil Twilight 5:39 AM EDT 8:01 PM EDT
Nautical Twilight 5:04 AM EDT 8:35 PM EDT
Astronomical Twilight 4:27 AM EDT 9:12 PM EDT
Moon 1:27 AM EDT (8/26) 4:55 PM EDT (8/26)
Length of Visible Light 14h 21m
Length of Day
13h 24m
Waning Crescent, 19% of the Moon is Illuminated
Aug 26
Waning Crescent
Aug 30
New
Sep 5
First Quarter
Sep 14
Full
Sep 21
Last Quarter

Hourly Weather History & Observations

Time (EDT) Temp. Dew Point Humidity Pressure Visibility Wind Dir Wind Speed Gust Speed Precip Events Conditions
12:24 AM 55.0 °F 50.0 °F 83% 30.28 in 10.0 mi NNE 6.9 mph - N/A   Scattered Clouds
12:52 AM 54.0 °F 48.9 °F 83% 30.28 in 10.0 mi North 5.8 mph - N/A   Clear
1:18 AM 54.0 °F 50.0 °F 86% 30.28 in 10.0 mi North 4.6 mph - N/A   Mostly Cloudy
1:52 AM 54.0 °F 50.0 °F 86% 30.28 in 10.0 mi North 4.6 mph - N/A   Overcast
2:34 AM 53.1 °F 50.0 °F 89% 30.27 in 10.0 mi North 4.6 mph - N/A   Scattered Clouds
2:52 AM 52.0 °F 48.9 °F 89% 30.27 in 10.0 mi North 5.8 mph - N/A   Clear
3:41 AM 51.1 °F 50.0 °F 96% 30.27 in 10.0 mi Calm Calm - N/A   Mostly Cloudy
3:52 AM 51.1 °F 48.9 °F 92% 30.26 in 10.0 mi NE 3.5 mph - N/A   Scattered Clouds
4:52 AM 51.1 °F 48.9 °F 92% 30.25 in 10.0 mi NNE 5.8 mph - N/A   Clear
5:52 AM 50.0 °F 48.9 °F 96% 30.26 in 10.0 mi North 4.6 mph - N/A   Clear
6:52 AM 51.1 °F 48.9 °F 92% 30.27 in 10.0 mi North 3.5 mph - N/A   Clear
7:52 AM 55.0 °F 51.1 °F 86% 30.27 in 10.0 mi North 3.5 mph - N/A   Clear
8:52 AM 62.1 °F 53.1 °F 72% 30.27 in 10.0 mi NNE 5.8 mph - N/A   Clear
9:52 AM 66.0 °F 54.0 °F 65% 30.27 in 10.0 mi NE 9.2 mph - N/A   Clear
10:52 AM 69.1 °F 54.0 °F 58% 30.24 in 10.0 mi NNE 12.7 mph 19.6 mph N/A   Partly Cloudy
11:52 AM 69.1 °F 53.1 °F 57% 30.23 in 10.0 mi ENE 9.2 mph - N/A   Scattered Clouds
12:52 PM 72.0 °F 53.1 °F 51% 30.23 in 10.0 mi NE 8.1 mph - N/A   Scattered Clouds
1:52 PM 71.1 °F 52.0 °F 51% 30.23 in 10.0 mi ENE 8.1 mph - N/A   Mostly Cloudy
2:52 PM 73.0 °F 53.1 °F 49% 30.21 in 10.0 mi NNE 8.1 mph - N/A   Mostly Cloudy
3:52 PM 75.0 °F 51.1 °F 43% 30.19 in 10.0 mi ENE 11.5 mph - N/A   Scattered Clouds
4:52 PM 73.0 °F 50.0 °F 44% 30.18 in 10.0 mi ENE 4.6 mph - N/A   Partly Cloudy
5:52 PM 73.0 °F 51.1 °F 46% 30.17 in 10.0 mi ENE 5.8 mph - N/A   Partly Cloudy
6:52 PM 71.1 °F 48.9 °F 45% 30.17 in 10.0 mi ENE 5.8 mph - N/A   Clear
7:52 PM 63.0 °F 53.1 °F 70% 30.18 in 10.0 mi NNE 3.5 mph - N/A   Clear
8:52 PM 59.0 °F 53.1 °F 81% 30.19 in 10.0 mi NNE 3.5 mph - N/A   Clear
9:52 PM 57.9 °F 52.0 °F 81% 30.20 in 10.0 mi Calm Calm - N/A   Clear
10:52 PM 55.0 °F 52.0 °F 89% 30.19 in 10.0 mi Calm Calm - N/A   Clear
11:52 PM 53.1 °F 52.0 °F 96% 30.19 in 10.0 mi Calm Calm - N/A   Clear